Location: Newark
(33.6439°N, 114.9881°W)
Time: 21:12:11
(UTC+00:00)

deb Explorer IX - All Passes

Search period start: 22 October 2019 00:00
Search period end: 01 November 2019 00:00
Orbit: 545 x 1106 km, 38.8° (Epoch: 21 October)

Date Brightness Start Highest point End Pass type
(mag) Time Alt. Az. Time Alt. Az. Time Alt. Az.
22 Oct - 00:49:57 10° WNW 00:56:25 83° SSW 01:03:39 10° ESE daylight
22 Oct - 02:37:42 10° W 02:43:35 30° SW 02:49:47 10° SSE visible
22 Oct - 17:23:53 10° SSE 17:25:41 12° SE 17:27:33 10° ESE daylight
22 Oct - 19:07:13 10° SW 19:11:48 61° SSE 19:17:12 10° ENE daylight
22 Oct - 20:53:56 10° W 20:59:00 57° N 21:05:00 10° ENE daylight
22 Oct - 22:41:08 10° WNW 22:46:47 56° N 22:53:21 10° E daylight
23 Oct - 00:28:07 10° WNW 00:34:26 81° SSW 00:41:34 10° ESE daylight
23 Oct - 02:15:50 10° W 02:21:33 29° SW 02:27:39 10° SSE visible
23 Oct - 17:02:07 10° SSE 17:03:50 12° SE 17:05:38 10° ESE daylight
23 Oct - 18:45:30 10° SW 18:49:58 62° SSE 18:55:11 10° ENE daylight
23 Oct - 20:32:13 10° W 20:37:07 56° N 20:42:55 10° ENE daylight
23 Oct - 22:19:22 10° WNW 22:24:51 55° N 22:31:15 10° E daylight
24 Oct - 00:06:17 10° WNW 00:12:26 80° SSW 00:19:27 10° ESE daylight
24 Oct - 01:54:00 10° W 01:59:32 28° SW 02:05:30 10° SSE visible
24 Oct - 16:40:18 10° SSE 16:42:00 12° SE 16:43:44 10° ESE daylight
24 Oct - 18:23:46 10° SW 18:28:08 63° SSE 18:33:11 10° ENE daylight
24 Oct - 20:10:31 10° W 20:15:16 54° N 20:20:52 10° ENE daylight
24 Oct - 21:57:38 10° WNW 22:02:56 55° N 22:09:10 10° E daylight
24 Oct - 23:44:28 10° WNW 23:50:27 79° SSW 23:57:21 10° ESE daylight
25 Oct - 01:32:11 10° W 01:37:32 27° SW 01:43:20 10° SSE visible
25 Oct - 16:18:29 10° SSE 16:20:10 12° SE 16:21:53 10° ESE daylight
25 Oct - 18:02:02 10° SW 18:06:19 64° SSE 18:11:12 10° ENE daylight
25 Oct - 19:48:48 10° W 19:53:25 53° N 19:58:49 10° ENE daylight
25 Oct - 21:35:53 10° WNW 21:41:02 54° N 21:47:06 10° E daylight
25 Oct - 23:22:41 10° WNW 23:28:29 77° SSW 23:35:14 10° ESE daylight
26 Oct - 01:10:23 10° W 01:15:32 26° SW 01:21:09 10° SSE visible
26 Oct - 15:56:38 10° SSE 15:58:20 12° SE 16:00:04 10° ESE daylight
26 Oct - 17:40:18 10° SW 17:44:30 65° SSE 17:49:15 10° ENE daylight
26 Oct - 19:27:06 10° W 19:31:35 51° N 19:36:47 10° ENE daylight
26 Oct - 21:14:09 10° WNW 21:19:09 54° N 21:25:02 10° E daylight
26 Oct - 23:00:54 10° WNW 23:06:32 75° SSW 23:13:08 10° ESE daylight
27 Oct - 00:48:37 10° W 00:53:33 25° SW 00:58:58 10° SSE daylight
27 Oct - 15:34:45 10° SSE 15:36:30 12° SE 15:38:17 10° ESE daylight
27 Oct - 17:18:34 10° SW 17:22:42 66° SSE 17:27:18 10° ENE daylight
27 Oct - 19:05:24 10° W 19:09:45 50° N 19:14:47 10° ENE daylight
27 Oct - 20:52:26 10° WNW 20:57:16 53° N 21:02:58 10° E daylight
27 Oct - 22:39:09 10° WNW 22:44:36 74° SSW 22:51:01 10° ESE daylight
28 Oct - 00:26:52 10° W 00:31:34 24° SW 00:36:45 10° SSE daylight
28 Oct - 15:12:50 10° SSE 15:14:40 13° SE 15:16:32 10° ESE daylight
28 Oct - 16:56:49 10° WSW 17:00:55 68° SSE 17:05:23 10° ENE daylight
28 Oct - 18:43:42 10° W 18:47:56 49° N 18:52:47 10° ENE daylight
28 Oct - 20:30:43 10° WNW 20:35:24 53° N 20:40:55 10° E daylight
28 Oct - 22:17:23 10° WNW 22:22:41 72° SSW 22:28:55 10° ESE daylight
29 Oct - 00:05:09 10° W 00:09:36 22° SW 00:14:32 10° SSE daylight
29 Oct - 14:50:54 10° S 14:52:51 13° SE 14:54:48 10° ESE daylight
29 Oct - 16:35:03 10° WSW 16:39:07 69° SSE 16:43:29 10° ENE daylight
29 Oct - 18:21:59 10° W 18:26:08 47° N 18:30:49 10° ENE daylight
29 Oct - 20:09:00 10° WNW 20:13:34 52° NNE 20:18:53 10° E daylight
29 Oct - 21:55:39 10° WNW 22:00:46 70° SSW 22:06:50 10° ESE daylight
29 Oct - 23:43:27 10° W 23:47:39 21° SW 23:52:19 10° S daylight
30 Oct - 14:28:57 10° S 14:31:02 14° SE 14:33:07 10° ESE daylight
30 Oct - 16:13:17 10° WSW 16:17:20 71° SSE 16:21:37 10° ENE daylight
30 Oct - 18:00:17 10° W 18:04:20 46° N 18:08:52 10° ENE daylight
30 Oct - 19:47:17 10° WNW 19:51:43 52° N 19:56:53 10° E daylight
30 Oct - 21:33:55 10° WNW 21:38:52 68° SSW 21:44:44 10° SE daylight
30 Oct - 23:21:46 10° W 23:25:43 20° SW 23:30:04 10° S daylight
31 Oct - 14:06:58 10° S 14:09:13 14° SE 14:11:26 10° ESE daylight
31 Oct - 15:51:30 10° WSW 15:55:33 73° SSE 15:59:45 10° ENE daylight
31 Oct - 17:38:33 10° W 17:42:33 45° N 17:46:56 10° ENE daylight
31 Oct - 19:25:34 10° WNW 19:29:54 51° NNE 19:34:53 10° E daylight
31 Oct - 21:12:11 10° WNW 21:17:00 65° SSW 21:22:39 10° SE daylight
31 Oct - 23:00:08 10° WSW 23:03:48 18° SW 23:07:50 10° S daylight
